Temp
9 9 8 8 8 8 8 8 8 8 8 8 8 8 8 8 8 8 8 8 8 8 8 9 9 9 10 9 9 14 14 15 14 13 13 13 12 13 13 12 13 13 15 15 16 15 15
9 8 8 8 8 8 8 8 8 8 8 8 8 8 7 7 7 7 7 8 8 8 8 8 9 10 9 8 13 13 14 14 13 13 13 12 13 13 13 13 13 14 14 16 15 15 14
8 8 8 8 8 8 8 8 8 7 8 8 8 7 7 7 7 7 8 8 8 8 9 10 10 9 10 9 13 13 13 13 13 13 11 13 13 13 13 14 13 13 14 15 14 14 15
8 8 8 8 8 8 8 8 7 7 7 7 7 7 7 7 7 8 10 8 10 10 10 10 9 10 8 13 12 13 12 13 14 13 13 14 13 13 13 13 12 13 12 13 15 14 14
8 8 8 8 8 7 7 7 7 7 7 7 7 7 7 7 8 8 11 10 10 10 10 10 10 9 10 13 11 13 12 12 13 13 13 14 12 12 12 12 12 11 13 12 13 14 14
8 8 7 7 7 7 7 7 7 7 7 7 6 6 7 7 8 8 11 10 10 10 10 10 10 9 11 10 10 12 12 12 11 12 12 12 12 12 10 12 13 12 11 11 13 15 14
7 7 7 7 7 7 7 7 7 7 7 6 6 8 9 7 9 9 11 10 5 7 5 5 6 7 9 9 11 11 11 11 12 12 12 11 11 12 13 12 12 12 12 12 12 14 13
7 7 7 7 7 7 7 7 7 7 6 6 7 9 9 8 9 9 8 4 5 4 5 6 6 6 8 8 8 10 11 10 10 10 11 10 11 12 13 12 11 11 11 11 12 13 13
7 7 7 6 7 7 6 6 6 6 6 7 8 9 9 9 9 8 5 5 5 5 5 6 8 9 9 9 9 9 8 8 10 9 10 9 12 11 10 9 9 10 10 10 10 12 12
6 6 6 6 6 6 6 6 6 6 6 8 10 10 10 10 9 7 6 5 5 6 6 8 8 8 8 8 9 10 9 8 9 9 9 8 10 9 8 8 6 7 8 9 10 10 10
6 6 6 6 6 6 6 6 6 6 8 9 10 10 9 9 8 6 6 5 6 6 9 7 8 9 7 8 7 8 9 7 7 7 8 7 8 8 7 6 6 7 6 7 8 9 9
6 6 6 6 6 6 6 6 6 8 9 10 10 10 9 9 8 7 6 6 6 8 5 7 6 6 5 6 6 6 7 6 7 6 7 7 7 7 7 8 8 6 7 8 8 9 10
6 6 6 5 5 5 5 5 6 9 10 11 10 9 9 8 5 8 6 5 7 7 7 5 5 5 5 5 5 4 5 4 5 4 5 5 7 7 6 6 7 7 5 7 9 10 11
6 5 5 5 5 5 5 5 5 9 10 11 10 9 9 8 8 8 6 6 8 6 4 5 5 5 4 4 4 4 4 4 4 3 3 3 5 6 7 6 5 5 5 4 7 7 7
5 5 5 5 5 5 5 5 5 6 9 10 11 9 8 9 9 9 4 3 4 4 4 4 4 3 3 4 3 2 2 3 3 3 3 3 4 6 6 6 6 5 5 6 3 5 7
5 5 5 5 4 4 5 4 4 6 8 9 8 7 6 8 9 8 3 5 4 5 4 4 3 3 2 2 2 1 2 4 3 3 4 1 2 4 5 5 6 5 5 4 5 6 7
5 5 4 4 4 4 4 4 4 4 8 8 6 3 6 8 8 2 1 2 3 4 4 4 3 3 2 1 2 1 2 4 2 3 3 3 1 3 4 5 4 5 1 2 3 4 4
5 4 4 4 4 3 3 3 4 4 7 7 2 4 6 8 2 -1 1 1 4 4 4 4 3 3 2 2 2 1 1 2 3 2 1 1 -1 1 2 3 2 -0 -2 -4 1 2 2
4 4 4 4 3 3 3 3 3 3 4 4 -0 -0 5 6 0 -0 0 1 2 3 3 3 3 4 3 2 1 1 1 4 3 3 2 1 2 2 3 3 1 -3 -5 -5 -5 -4 -4
4 4 4 4 3 3 3 3 3 3 4 4 -1 0 0 -1 -0 1 1 1 2 3 3 3 3 3 2 1 1 -0 2 3 3 2 5 3 1 1 0 0 -1 -4 -6 -6 -5 -3 -6
4 4 4 4 3 3 3 3 3 3 4 4 -3 -1 0 -1 1 -0 0 1 1 2 3 2 2 2 2 -0 1 0 1 1 2 2 1 1 -1 -3 -7 -7 -7 -7 -8 -8 -9 -8 -6
4 3 4 3 3 3 3 3 3 3 4 3 -2 -2 -3 -2 -1 -1 -1 -1 1 1 2 1 1 -0 1 -1 0 -2 -2 -1 -2 -1 -1 0 0 -2 -6 -7 -8 -10 -9 -9 -11 -11 -10
4 4 4 3 3 3 3 3 3 3 3 2 2 1 -1 -1 -0 -3 -2 -2 0 -1 -1 0 -1 -3 -3 -1 -3 -3 -3 -5 -6 -6 -7 -5 -6 -0 -5 -6 -5 -10 -12 -10 -12 -13 -12
3 3 3 3 3 2 2 2 2 2 2 2 1 0 -2 -4 -3 -2 -3 -3 -3 -2 -5 -2 -2 -6 -2 -3 -3 -4 -5 -6 -6 -7 -8 -9 -7 -3 -4 -4 -9 -11 -12 -12 -13 -13 -13
3 3 2 2 2 2 2 2 2 2 2 1 1 -0 -3 -8 -5 -4 -4 -5 -6 -6 -6 -3 -2 -4 -5 -5 -5 -5 -2 -2 -5 -6 -9 -11 -11 -7 -5 -9 -11 -10 -13 -14 -14 -14 -14
2 2 2 1 1 1 1 1 2 2 2 1 -0 -0 -4 -8 -8 -6 -6 -7 -10 -10 -9 -5 -4 -5 -5 -8 -7 -6 -5 -6 -7 -8 -7 -10 -11 -10 -9 -8 -9 -13 -13 -13 -15 -14 -14
2 1 1 1 0 1 1 1 2 1 1 1 -2 -1 -4 -10 -11 -10 -11 -10 -10 -12 -10 -9 -8 -7 -7 -10 -8 -10 -8 -12 -13 -13 -14 -14 -16 -13 -13 -16 -15 -15 -15 -14 -13 -14 -15
1 0 0 0 0 1 1 1 1 0 0 1 -4 -2 -4 -11 -12 -8 -9 -12 -12 -14 -16 -12 -10 -9 -9 -9 -10 -9 -13 -14 -16 -17 -17 -19 -21 -19 -19 -15 -11 -15 -15 -14 -18 -20 -18
0 0 -0 -0 0 1 1 1 1 0 0 1 -4 -4 -3 -7 -10 -8 -8 -9 -10 -10 -14 -16 -11 -11 -12 -13 -13 -13 -14 -16 -19 -17 -19 -16 -20 -20 -18 -16 -22 -24 -20 -22 -22 -20 -18
Height
824 822 820 817 815 813 810 806 803 800 796 791 787 783 778 772 767 761 757 751 747 744 741 740 740 742 743 745 734 724 721 719 718 718 720 724 729 730 732 732 730 725 717 717 715 717 719
824 821 820 818 816 813 809 807 803 799 794 790 786 781 776 770 764 758 752 747 742 738 734 733 735 738 741 747 726 725 722 718 718 718 719 721 720 721 724 726 727 716 715 712 712 714 716
824 822 820 818 815 813 810 806 803 798 794 789 784 779 774 768 762 754 748 742 737 732 730 728 731 736 739 735 726 724 722 719 718 717 718 718 719 720 720 721 717 716 715 711 712 714 712
825 822 821 818 816 813 810 806 803 799 794 789 784 779 772 766 759 751 743 736 732 732 731 730 732 735 735 727 727 724 720 717 715 716 717 717 718 720 720 718 719 719 717 715 697 703 709
825 823 821 818 816 813 809 807 803 799 794 789 783 778 771 765 758 750 742 736 734 734 733 734 735 737 735 729 727 723 721 719 716 715 715 716 718 717 717 721 723 722 708 713 706 696 701
826 823 821 818 816 813 809 807 803 799 795 789 783 777 771 765 759 751 741 737 736 735 734 734 735 739 732 735 729 724 720 716 715 715 716 717 717 716 721 713 697 706 716 713 700 695 696
826 824 821 818 816 813 810 806 803 800 795 789 783 776 770 765 760 753 742 736 744 740 742 753 752 748 741 737 730 726 720 716 715 714 717 717 716 709 708 709 702 700 699 697 700 693 699
825 824 820 819 816 813 810 806 802 799 794 788 782 777 771 766 762 759 754 757 768 769 761 751 751 750 742 740 738 731 725 723 722 724 719 719 713 709 704 706 706 705 704 691 694 694 699
825 823 820 818 816 813 809 806 803 798 792 787 781 776 772 766 763 760 759 765 765 765 764 755 748 750 748 743 739 740 735 731 724 724 720 721 705 705 712 718 713 708 704 699 700 695 690
825 823 820 818 816 813 809 805 802 798 792 786 780 776 771 767 765 763 763 763 761 763 764 756 752 752 749 742 742 743 739 738 730 725 723 721 713 717 723 723 727 715 708 703 693 697 689
825 822 820 818 816 812 809 805 801 796 791 786 781 777 773 767 768 766 767 761 761 763 757 760 757 756 755 755 757 745 743 740 739 737 733 729 723 720 722 730 729 720 718 716 700 691 693
824 822 820 818 816 812 809 805 801 796 791 786 781 776 774 770 766 766 761 759 761 759 785 764 765 768 764 760 759 754 747 744 740 739 734 731 725 723 724 720 715 721 715 700 694 686 673
824 822 820 818 816 812 808 804 801 795 791 785 780 776 774 771 771 762 758 761 765 772 770 778 779 774 771 768 763 764 757 758 753 754 749 740 730 725 725 726 718 717 724 702 678 670 654
824 822 820 818 815 812 808 804 800 795 790 783 778 776 774 772 767 760 758 765 766 781 791 786 780 777 777 775 772 770 766 765 758 762 760 759 743 730 724 732 732 724 726 728 700 687 693
824 822 821 818 815 812 808 805 801 796 790 783 776 775 775 771 765 761 767 793 798 795 794 791 786 785 785 780 785 781 778 772 767 767 765 758 747 732 727 726 725 724 722 717 731 706 693
824 822 821 818 815 813 810 805 801 796 790 784 779 777 779 773 768 764 783 788 796 793 794 793 798 791 796 791 790 790 782 766 766 765 762 769 758 737 730 727 722 729 727 724 722 700 680
824 822 821 818 816 814 809 806 801 796 790 784 779 782 782 774 773 784 808 806 800 796 795 797 797 796 796 796 792 791 785 769 771 768 764 760 767 745 739 728 732 730 749 743 738 722 719
824 822 820 819 816 813 810 807 803 797 790 784 784 790 786 780 798 812 813 809 802 798 795 796 795 796 797 792 789 790 785 776 770 771 771 769 777 765 747 740 743 757 774 780 751 743 739
823 823 821 818 817 814 811 808 804 799 794 791 798 800 792 787 815 819 814 810 805 801 797 796 794 790 789 792 796 788 780 768 770 770 770 766 758 757 742 745 748 779 796 793 790 780 790
823 822 820 819 818 815 812 809 806 801 795 793 801 809 805 807 815 817 815 813 809 800 798 795 791 789 790 792 791 791 779 770 771 767 756 758 762 762 765 762 769 792 809 802 788 781 809
822 821 820 819 818 816 813 811 808 801 796 796 807 819 818 825 817 821 819 815 815 807 799 797 793 793 787 795 788 785 779 777 773 767 765 764 775 786 814 813 809 817 825 824 825 821 809
820 821 820 819 818 816 815 812 810 806 800 801 814 821 822 827 824 824 824 824 816 813 806 802 803 804 796 803 796 800 797 793 790 780 774 768 763 774 813 817 819 835 833 836 843 847 842
820 820 819 818 817 817 815 813 812 809 805 808 812 815 816 832 827 833 835 832 821 823 813 808 812 814 810 802 804 799 797 807 815 807 805 794 797 764 802 807 801 836 862 852 861 865 860
820 819 818 818 817 816 815 814 813 811 809 809 813 814 822 843 835 837 840 838 833 827 832 815 813 824 807 802 801 802 805 808 810 813 815 813 800 778 793 801 839 863 867 864 867 871 871
819 819 817 817 816 815 815 814 813 813 811 811 813 814 824 856 849 844 842 843 838 835 831 821 818 821 811 804 807 811 793 793 805 814 818 825 823 814 800 843 864 858 871 876 875 877 875
818 817 816 815 815 815 815 814 815 814 812 814 814 815 821 846 862 855 850 851 858 852 842 827 821 817 811 818 821 823 827 828 828 828 817 828 829 826 834 831 846 873 874 874 877 878 877
816 816 815 815 815 815 815 815 815 814 814 813 816 818 823 851 862 859 864 863 857 858 855 844 837 825 821 836 840 856 849 867 881 880 875 866 871 865 867 892 886 880 877 873 875 881 879
815 815 814 814 816 817 816 816 815 815 815 814 820 821 822 851 864 861 860 862 861 865 875 850 846 840 840 847 855 855 877 883 895 902 904 911 922 912 911 891 866 880 877 877 887 886 882
815 814 814 815 817 817 816 816 816 817 816 815 821 825 827 838 861 862 862 860 859 857 861 860 857 857 858 866 869 872 883 891 911 908 905 898 913 917 905 889 894 890 887 884 883 883 879
Wind_Speed
12 14 15 17 18 19 20 21 22 23 24 25 26 27 28 29 30 31 31 31 30 26 22 19 15 9 2 2 8 8 18 15 13 22 21 11 9 10 10 6 8 13 13 4 10 8 7
13 14 16 17 19 20 21 23 23 24 25 26 27 28 30 31 32 32 32 31 28 28 26 20 11 8 4 3 2 16 19 11 10 20 14 10 8 6 5 5 10 3 6 18 14 9 6
13 15 16 18 18 21 21 22 23 25 26 27 29 31 32 32 32 32 33 31 32 21 10 5 6 13 3 9 10 15 20 13 6 19 6 16 6 5 4 3 5 6 18 19 11 6 9
14 15 16 17 19 19 21 22 23 24 26 27 30 31 31 32 30 30 41 32 11 10 8 10 12 6 5 5 15 24 25 12 3 10 18 13 15 4 2 5 6 3 3 3 2 16 7
13 15 16 17 18 19 21 22 23 24 26 28 29 29 30 31 29 31 41 11 8 10 10 8 4 3 6 10 19 22 19 9 13 5 14 6 6 6 4 3 6 5 13 8 5 11 8
13 14 15 16 18 19 20 22 23 25 26 28 29 29 30 30 27 33 38 4 5 4 2 1 5 0 6 6 15 20 28 8 3 1 2 4 4 4 3 10 15 7 8 6 5 2 14
12 13 15 16 18 19 20 21 23 25 26 28 28 30 31 29 18 31 40 4 7 5 13 2 4 2 5 16 4 23 30 7 2 1 3 3 7 13 17 15 18 16 18 18 2 4 3
12 13 14 16 17 18 19 21 23 24 26 27 27 27 30 29 9 25 27 6 3 8 7 4 4 5 9 5 3 14 29 6 4 3 3 3 13 13 12 8 15 19 21 27 17 15 13
11 12 14 16 17 18 20 21 22 24 26 29 30 27 29 25 7 24 12 12 13 6 2 6 2 4 7 5 3 10 10 7 3 3 4 6 6 11 7 7 9 11 9 14 15 8 14
10 12 14 15 16 18 20 21 23 24 26 30 31 25 27 24 4 20 4 26 5 7 2 6 5 6 10 8 2 7 13 3 5 4 6 7 2 7 8 10 7 6 6 12 14 9 7
10 12 13 14 16 17 19 21 24 27 30 32 31 19 20 21 10 4 17 19 7 4 4 7 5 4 10 8 7 7 19 6 5 9 2 5 8 13 7 4 2 7 13 10 15 9 5
9 11 13 14 15 17 20 23 25 28 30 32 32 16 15 16 14 17 22 2 4 2 4 4 5 9 8 6 7 8 4 6 3 4 4 6 5 2 2 5 8 3 8 16 10 9 9
9 10 11 13 16 18 21 23 26 28 30 31 31 11 13 14 12 27 12 2 4 3 4 9 6 9 5 10 7 9 11 8 5 5 7 6 6 4 2 8 7 2 6 4 6 9 8
8 9 12 13 16 19 22 24 27 29 30 30 30 12 8 21 28 23 3 5 3 3 5 4 7 7 4 11 6 11 11 8 5 4 3 4 6 6 3 2 5 10 3 3 5 5 9
7 9 11 14 16 19 21 24 26 28 29 29 25 10 11 30 25 19 5 5 1 3 3 7 9 4 4 5 3 7 6 3 3 5 8 5 4 12 13 3 2 4 3 3 3 10 4
7 9 11 14 17 19 21 23 25 27 29 28 13 4 14 30 18 11 5 3 2 3 4 3 2 4 5 6 6 6 4 4 5 4 2 5 7 6 5 5 2 1 4 4 3 4 3
7 9 11 14 16 18 21 23 25 27 28 24 6 4 23 27 12 6 4 3 3 4 4 3 3 4 5 4 3 3 5 9 4 7 5 3 1 11 4 2 4 4 3 3 2 2 5
7 9 12 14 15 17 20 22 25 26 27 17 4 4 28 22 5 2 3 5 5 4 2 3 2 3 4 4 6 3 5 4 8 4 7 3 2 5 7 8 12 9 5 3 1 5 3
7 9 10 12 15 16 19 22 25 25 21 6 2 1 19 14 4 4 5 4 2 3 4 3 3 3 2 3 4 4 3 3 8 15 6 3 3 5 4 1 4 9 8 5 4 2 3
7 7 8 11 13 15 18 21 24 26 18 4 3 3 4 4 1 3 6 4 5 4 5 4 5 4 2 4 6 7 9 6 18 15 18 8 3 2 2 5 4 6 16 16 1 2 3
6 6 7 8 11 15 17 20 23 27 15 3 3 1 1 3 4 4 3 5 5 10 3 4 4 5 7 3 8 1 3 16 7 10 8 6 3 8 13 16 21 15 14 16 17 10 3
5 5 7 8 10 13 15 18 21 23 10 9 3 3 3 2 3 5 8 5 10 9 3 7 9 12 9 3 5 10 15 10 4 8 8 5 3 5 6 16 21 17 18 10 14 12 9
7 7 7 7 8 10 13 13 15 17 16 6 6 3 3 8 3 3 4 7 8 9 7 6 6 7 6 5 13 16 10 12 6 5 7 6 3 2 4 11 3 7 12 10 9 13 4
6 7 7 8 8 9 10 10 11 12 12 10 4 1 3 2 3 4 7 10 10 10 4 6 6 4 6 17 5 9 12 10 9 10 10 5 3 3 3 2 4 3 5 8 12 9 9
6 5 7 7 8 9 9 9 9 9 10 14 7 4 3 3 4 5 10 8 9 8 4 4 6 10 14 7 3 3 2 1 6 8 14 9 2 4 2 3 3 3 4 3 4 4 6
5 7 7 8 9 9 9 9 9 8 8 10 12 8 7 6 6 6 4 4 3 5 7 4 5 15 7 3 4 4 4 5 6 14 13 11 9 4 3 3 2 1 8 3 1 1 7
6 7 7 8 8 8 9 10 10 9 7 9 11 10 12 4 3 3 3 3 4 2 3 4 9 8 6 4 4 4 2 1 4 5 8 7 5 6 5 3 3 2 9 2 2 2 5
6 7 8 9 9 9 11 9 8 7 4 6 10 5 10 3 2 4 3 1 3 2 1 5 4 5 5 6 3 3 3 1 4 1 2 1 2 2 3 4 2 3 2 3 4 3 2
7 8 9 10 10 12 10 10 12 9 10 18 13 22 21 12 4 4 9 11 2 4 3 4 3 1 2 3 3 2 3 3 1 2 3 3 4 3 5 4 4 4 5 4 4 4 3
Wind_Direction
19 14 8 7 5 3 1 1 357 355 354 352 349 346 343 340 336 331 327 324 321 318 311 302 293 283 232 253 256 338 336 339 175 172 180 179 173 193 200 202 216 241 250 240 243 230 234
16 14 10 7 4 3 1 358 358 357 355 352 349 346 343 340 336 331 327 324 321 315 307 299 275 202 158 266 358 345 342 326 200 185 188 167 201 187 229 213 209 296 251 254 245 239 233
12 11 8 6 6 360 1 360 357 357 356 353 350 347 345 344 341 335 333 328 321 320 341 339 196 167 188 249 335 339 342 332 249 206 179 208 224 170 181 272 248 269 273 272 248 215 240
13 11 6 6 1 2 1 0 358 359 357 354 350 348 348 347 345 345 351 334 25 28 36 84 133 148 241 310 349 347 343 327 267 230 218 222 214 214 205 315 348 294 246 234 254 196 207
10 10 8 4 4 3 2 1 0 358 356 353 351 350 350 349 355 351 353 5 50 56 84 88 120 106 313 353 356 352 347 300 310 256 224 200 144 214 179 182 289 197 257 241 295 185 177
6 7 5 7 4 4 5 2 0 356 355 353 351 351 352 351 359 359 357 44 71 78 107 345 55 351 2 313 322 341 351 327 278 135 166 179 215 209 178 208 226 200 242 232 220 274 203
10 6 7 8 5 6 4 1 359 356 355 355 353 357 359 352 357 6 12 42 14 352 36 55 280 215 285 324 23 355 347 340 349 351 227 241 231 236 248 236 254 277 272 268 180 309 248
10 7 9 6 6 5 4 2 359 356 356 355 355 359 0 356 12 10 33 63 72 265 319 316 259 275 278 319 309 354 1 36 2 301 271 273 256 264 257 260 249 248 256 263 274 249 256
9 10 11 7 6 6 3 3 359 357 356 358 358 359 358 359 347 9 63 54 342 168 254 298 257 333 335 348 351 351 9 327 284 262 259 248 286 319 321 331 299 275 258 268 256 266 255
10 11 12 11 9 6 4 1 358 358 359 360 0 355 359 7 12 349 44 341 352 148 33 357 354 2 343 317 79 4 6 338 317 306 304 261 336 17 339 317 4 293 10 317 271 244 248
12 13 14 13 9 10 5 2 360 359 358 359 0 351 1 9 341 12 321 332 137 166 333 349 356 4 329 43 276 347 336 347 308 299 322 282 339 325 332 355 281 273 315 316 288 233 235
15 16 21 14 11 10 7 5 2 1 357 357 356 349 2 0 353 336 332 84 138 43 277 357 22 349 2 3 336 324 329 348 271 315 11 287 288 352 217 309 303 291 316 302 234 236 234
25 23 22 15 14 12 10 7 2 0 356 354 353 5 12 13 327 339 343 96 22 97 341 358 342 338 337 347 343 12 338 353 9 355 343 316 329 322 202 339 327 345 324 316 241 217 246
32 30 23 22 17 13 12 7 1 359 356 353 351 359 16 360 350 346 6 41 48 35 2 351 331 332 40 8 345 340 344 347 7 45 298 337 331 341 2 264 259 306 232 278 295 333 314
38 35 30 25 19 16 13 9 2 357 357 352 349 9 10 354 349 352 59 50 334 9 333 325 319 359 325 6 333 349 320 291 2 40 6 316 269 312 314 279 186 323 307 210 235 248 256
53 43 35 28 23 19 14 7 1 358 358 352 345 15 11 351 359 32 62 92 21 31 338 7 333 21 317 324 344 12 317 286 340 38 46 279 294 277 308 312 126 110 329 11 349 299 225
60 47 38 32 26 16 13 10 5 358 359 354 356 44 358 2 29 43 71 13 341 324 13 331 298 301 272 299 304 290 271 291 21 330 314 287 252 297 314 308 332 360 9 350 262 267 347
67 53 44 36 20 24 21 16 10 2 360 358 15 40 5 12 47 31 36 336 322 306 334 311 258 245 241 320 295 266 247 226 360 353 331 305 224 276 273 334 77 63 17 20 92 313 2
76 58 52 35 32 27 22 17 10 4 1 350 62 310 28 52 65 7 334 329 280 316 315 321 277 245 269 263 296 229 269 301 8 343 306 272 225 291 315 134 100 59 16 326 265 286 58
81 65 52 39 34 32 26 20 13 8 6 39 71 36 10 40 53 101 18 334 313 293 274 252 266 267 280 249 217 277 292 316 340 306 303 351 335 208 295 358 33 52 29 16 10 53 99
91 66 54 44 38 36 28 21 16 14 19 78 30 83 186 4 4 8 6 351 312 352 310 328 296 281 293 309 316 221 321 325 323 353 353 310 252 93 81 77 77 68 50 39 54 15 50
91 70 59 51 48 37 28 20 15 16 37 65 93 77 17 41 345 21 7 333 11 341 279 333 353 335 334 287 353 318 327 333 11 315 340 334 271 133 80 98 88 65 39 46 38 21 67
86 74 70 66 44 31 18 20 20 20 35 71 38 43 114 11 13 50 19 330 345 360 306 41 19 350 342 2 317 296 277 82 62 12 332 334 323 318 155 182 307 36 6 56 73 38 21
96 79 66 48 33 24 20 18 24 26 63 89 73 126 77 17 44 44 352 352 337 348 272 299 18 49 283 318 314 58 97 111 83 59 26 328 358 13 84 182 35 124 38 78 94 51 32
98 81 64 48 36 32 31 33 41 42 82 79 74 84 107 88 336 358 352 357 325 313 328 313 353 333 298 311 28 51 242 295 51 45 27 30 355 61 105 55 134 165 16 348 4 58 27
101 77 66 53 49 49 50 53 51 62 73 93 57 77 96 118 7 319 326 2 340 323 334 320 320 323 351 51 52 35 36 338 335 342 14 14 23 84 37 94 118 351 338 319 71 273 12
94 82 75 68 66 65 67 65 77 64 67 118 70 100 87 99 328 26 50 325 310 325 275 310 336 341 24 14 54 41 24 199 20 8 336 349 359 43 16 92 299 281 311 342 86 246 331
92 91 85 82 81 82 80 77 64 88 111 135 69 96 110 97 316 47 25 46 345 47 88 292 11 5 5 40 54 8 55 343 73 265 326 140 54 340 345 52 346 10 340 136 218 278 227
104 96 92 92 101 95 92 85 85 104 116 114 92 94 98 87 163 144 71 48 28 239 162 322 171 300 213 79 39 64 36 28 165 341 11 18 169 211 166 222 236 261 182 238 187 213 265